Torna al catalogo

TITAN 3C TRANSTAGE DEB

AttivoLEO
NORAD 1829·DEBRIS·🇺🇸 United States

Lanciato Oct 15, 1965 da Cape Canaveral Space Force Station

Loading…

Prossimi Passaggi (prossime 24 ore)

TLE

AggiornatoSource: Space-Track

Epoca: Sep 14, 2026, 20:49 UTC

1 01829U 65082DU  26257.86763112  .00001770  00000-0  17533-3 0  9994
2 01829  32.2879  96.4208 0023467 202.2453 157.7185 14.89808060233907

Traccia TITAN 3C TRANSTAGE DEB in tempo reale con AllMySat

Download on the App Store